Location: Newark
(34.1333°N, 7.9667°W)
Time: 15:11:12
(UTC+00:00)

Vanguard 2 Rocket - Pass Details

Date: 05 August 2021
Orbit: 556 x 3324 km, 32.9° (Epoch: 20 September)

Event Time Altitude Azimuth Distance (km) Brightness Sun altitude
Exits shadow 04:04:12 15° 186° (S) 2,769 9.0 -19.2°
Maximum altitude 04:07:09 18° 158° (SSE) 2,231 8.7 -18.7°
Drops below altitude 10° 04:10:56 10° 115° (ESE) 2,393 9.4 -18.1°
Sets 04:13:41 0° 95° (E) 3,072 10.4 -17.6°
